Cumberland, WI

3:27 AM CST on December 07, 2019 (GMT -0600)
Cumberland Municipal

Weather History for KUBE - October, 2019

Change the Weather History Date:

Friday, October 4, 2019

  Actual Average (WUND) Record (WUND)
Temperature  
Mean Temperature 42 °F -  
Max Temperature 44 °F - - (-1)
Min Temperature 39 °F - - (-1)
Degree Days  
Heating Degree Days 24    
Moisture  
Dew Point 35 °F    
Average Humidity 77    
Maximum Humidity 93    
Minimum Humidity 66    
Precipitation  
Precipitation 0.00 in - - ()
Sea Level Pressure  
Sea Level Pressure 30.39 in    
Wind  
Wind Speed 5 mph (East)    
Max Wind Speed 13 mph    
Max Gust Speed 16 mph    
Visibility 10 miles    
Events      
Averages and records for this station are not official NWS values.
T = Trace of Precipitation, MM = Missing Value Source: NWS Daily Summary

Daily Weather History Graph

Daily Weather History Graph

Search for Another Location

Airport or City:

Astronomy

Oct. 04, 2019 Rise Set
Actual Time 7:09 AM CDT 6:42 PM CDT
Civil Twilight 6:40 AM CDT 7:12 PM CDT
Nautical Twilight 6:05 AM CDT 7:46 PM CDT
Astronomical Twilight 5:31 AM CDT 8:21 PM CDT
Moon 1:58 PM CDT (10/4) 10:55 PM CDT (10/4)
Length of Visible Light 12h 32m
Length of Day
11h 33m
Waxing Crescent, 40% of the Moon is Illuminated
Oct 4
Waxing Crescent
Oct 5
First Quarter
Oct 13
Full
Oct 21
Last Quarter
Oct 27
New

Hourly Weather History & Observations

Time (CDT) Temp. Windchill Dew Point Humidity Pressure Visibility Wind Dir Wind Speed Gust Speed Precip Events Conditions
12:15 AM 41.0 °F 37.1 °F 35.6 °F 81% 30.37 in 10.0 mi NNW 5.8 mph - N/A   Overcast
12:35 AM 41.0 °F 37.1 °F 35.6 °F 81% 30.37 in 10.0 mi NNW 5.8 mph - N/A   Overcast
12:55 AM 41.0 °F 36.4 °F 35.6 °F 81% 30.38 in 10.0 mi North 6.9 mph - N/A   Overcast
1:15 AM 41.0 °F 39.0 °F 35.6 °F 81% 30.39 in 10.0 mi North 3.5 mph - N/A   Overcast
1:35 AM 41.0 °F 38.0 °F 35.6 °F 81% 30.39 in 10.0 mi NNW 4.6 mph - N/A   Overcast
1:55 AM 41.0 °F 38.0 °F 35.6 °F 81% 30.39 in 10.0 mi North 4.6 mph - N/A   Overcast
2:15 AM 41.0 °F 38.0 °F 35.6 °F 81% 30.40 in 10.0 mi North 4.6 mph - N/A   Overcast
2:35 AM 41.0 °F 38.0 °F 35.6 °F 81% 30.40 in 10.0 mi North 4.6 mph - N/A   Overcast
2:55 AM 41.0 °F 38.0 °F 35.6 °F 81% 30.40 in 10.0 mi North 4.6 mph - N/A   Overcast
3:15 AM 41.0 °F 37.1 °F 35.6 °F 81% 30.40 in 10.0 mi NNE 5.8 mph - N/A   Overcast
3:35 AM 41.0 °F 37.1 °F 35.6 °F 81% 30.40 in 10.0 mi NNE 5.8 mph - N/A   Overcast
3:55 AM 41.0 °F 39.0 °F 35.6 °F 81% 30.40 in 10.0 mi North 3.5 mph - N/A   Overcast
4:15 AM 41.0 °F - 35.6 °F 81% 30.41 in 10.0 mi Calm Calm - N/A   Overcast
4:35 AM 39.2 °F - 35.6 °F 87% 30.42 in 10.0 mi Calm Calm - N/A   Mostly Cloudy
4:55 AM 39.2 °F - 35.6 °F 87% 30.42 in 10.0 mi Calm Calm - N/A   Overcast
5:15 AM 39.2 °F 37.0 °F 37.4 °F 93% 30.42 in 10.0 mi NNE 3.5 mph - N/A   Overcast
5:35 AM 41.0 °F 39.0 °F 35.6 °F 81% 30.43 in 10.0 mi NNE 3.5 mph - N/A   Overcast
5:55 AM 41.0 °F - 37.4 °F 87% 30.44 in 10.0 mi Calm Calm - N/A   Overcast
6:15 AM 41.0 °F 38.0 °F 37.4 °F 87% 30.44 in 10.0 mi NE 4.6 mph - N/A   Overcast
6:35 AM 41.0 °F 38.0 °F 37.4 °F 87% 30.44 in 10.0 mi ENE 4.6 mph - N/A   Overcast
6:55 AM 41.0 °F 38.0 °F 35.6 °F 81% 30.44 in 10.0 mi NNE 4.6 mph - N/A   Overcast
7:15 AM 41.0 °F 39.0 °F 35.6 °F 81% 30.45 in 10.0 mi NE 3.5 mph - N/A   Overcast
7:35 AM 41.0 °F - 35.6 °F 81% 30.46 in 10.0 mi Calm Calm - N/A   Overcast
7:55 AM 41.0 °F - 35.6 °F 81% 30.47 in 10.0 mi Calm Calm - N/A   Overcast
8:15 AM 41.0 °F - 35.6 °F 81% 30.47 in 10.0 mi Calm Calm - N/A   Light Drizzle
8:35 AM 41.0 °F 39.0 °F 35.6 °F 81% 30.48 in 10.0 mi East 3.5 mph - N/A   Overcast
8:55 AM 41.0 °F - 35.6 °F 81% 30.48 in 10.0 mi Calm Calm - N/A   Overcast
9:15 AM 41.0 °F 36.4 °F 35.6 °F 81% 30.48 in 10.0 mi East 6.9 mph - N/A   Overcast
9:35 AM 39.2 °F 35.0 °F 35.6 °F 87% 30.48 in 5.0 mi East 5.8 mph - N/A   Light Drizzle
10:15 AM 41.0 °F 39.0 °F 37.4 °F 87% 30.48 in 5.0 mi East 3.5 mph - N/A   Overcast
10:35 AM 42.8 °F 40.1 °F 37.4 °F 81% 30.48 in 10.0 mi East 4.6 mph - N/A   Overcast
10:55 AM 42.8 °F 41.1 °F 33.8 °F 70% 30.48 in 10.0 mi ESE 3.5 mph - N/A   Overcast
11:15 AM 42.8 °F 39.3 °F 33.8 °F 70% 30.48 in 10.0 mi ESE 5.8 mph - N/A   Overcast
11:35 AM 42.8 °F - 33.8 °F 70% 30.47 in 10.0 mi Calm Calm - N/A   Overcast
11:55 AM 42.8 °F 39.3 °F 33.8 °F 70% 30.46 in 10.0 mi SE 5.8 mph - N/A   Overcast
12:15 PM 42.8 °F 38.0 °F 33.8 °F 70% 30.45 in 10.0 mi East 8.1 mph - N/A   Overcast
12:35 PM 42.8 °F 38.6 °F 33.8 °F 70% 30.44 in 10.0 mi ESE 6.9 mph - N/A   Overcast
12:55 PM 42.8 °F 38.6 °F 33.8 °F 70% 30.44 in 10.0 mi East 6.9 mph - N/A   Overcast
1:15 PM 44.6 °F 41.4 °F 33.8 °F 66% 30.43 in 10.0 mi SE 5.8 mph - N/A   Overcast
1:35 PM 44.6 °F 40.7 °F 33.8 °F 66% 30.43 in 10.0 mi ESE 6.9 mph - N/A   Overcast
1:55 PM 44.6 °F 38.8 °F 33.8 °F 66% 30.42 in 10.0 mi ESE 11.5 mph - N/A   Overcast
2:15 PM 44.6 °F 39.7 °F 33.8 °F 66% 30.41 in 10.0 mi ESE 9.2 mph - N/A   Overcast
2:35 PM 44.6 °F 40.2 °F 33.8 °F 66% 30.40 in 10.0 mi ESE 8.1 mph - N/A   Overcast
2:55 PM 44.6 °F 41.4 °F 33.8 °F 66% 30.40 in 10.0 mi East 5.8 mph - N/A   Overcast
3:15 PM 44.6 °F 39.2 °F 33.8 °F 66% 30.39 in 10.0 mi SSE 10.4 mph - N/A   Overcast
3:35 PM 44.6 °F 40.7 °F 33.8 °F 66% 30.39 in 10.0 mi SE 6.9 mph - N/A   Overcast
3:55 PM 44.6 °F 40.7 °F 35.6 °F 71% 30.39 in 10.0 mi SSE 6.9 mph - N/A   Overcast
4:15 PM 44.6 °F 40.2 °F 35.6 °F 71% 30.37 in 10.0 mi ESE 8.1 mph - N/A   Overcast
4:35 PM 44.6 °F 40.7 °F 35.6 °F 71% 30.37 in 10.0 mi SE 6.9 mph - N/A   Overcast
4:55 PM 44.6 °F 40.2 °F 35.6 °F 71% 30.35 in 10.0 mi SE 8.1 mph - N/A   Overcast
5:15 PM 44.6 °F 39.2 °F 35.6 °F 71% 30.35 in 10.0 mi ESE 10.4 mph - N/A   Overcast
5:35 PM 44.6 °F 40.2 °F 35.6 °F 71% 30.35 in 10.0 mi ESE 8.1 mph - N/A   Overcast
5:55 PM 44.6 °F 40.2 °F 35.6 °F 71% 30.35 in 10.0 mi SE 8.1 mph - N/A   Overcast
6:15 PM 42.8 °F 38.6 °F 35.6 °F 76% 30.35 in 10.0 mi SE 6.9 mph - N/A   Overcast
6:35 PM 42.8 °F 37.0 °F 35.6 °F 76% 30.34 in 10.0 mi SE 10.4 mph - N/A   Overcast
6:55 PM 42.8 °F 38.0 °F 35.6 °F 76% 30.32 in 10.0 mi SE 8.1 mph - N/A   Overcast
7:15 PM 42.8 °F 37.0 °F 35.6 °F 76% 30.32 in 10.0 mi SE 10.4 mph 16.1 mph N/A   Overcast
7:35 PM 42.8 °F 36.2 °F 35.6 °F 76% 30.32 in 10.0 mi SE 12.7 mph - N/A   Overcast
7:55 PM 42.8 °F 37.0 °F 35.6 °F 76% 30.32 in 10.0 mi SE 10.4 mph - N/A   Overcast
8:15 PM 42.8 °F 38.6 °F 35.6 °F 76% 30.33 in 10.0 mi SE 6.9 mph - N/A   Overcast
8:35 PM 42.8 °F 38.0 °F 35.6 °F 76% 30.33 in 10.0 mi SE 8.1 mph - N/A   Overcast
8:55 PM 42.8 °F 38.0 °F 35.6 °F 76% 30.32 in 10.0 mi SE 8.1 mph - N/A   Overcast
9:15 PM 42.8 °F 38.6 °F 35.6 °F 76% 30.32 in 10.0 mi SE 6.9 mph - N/A   Overcast
9:35 PM 42.8 °F 38.0 °F 35.6 °F 76% 30.31 in 10.0 mi SE 8.1 mph - N/A   Overcast
9:55 PM 42.8 °F 38.6 °F 35.6 °F 76% 30.29 in 10.0 mi SE 6.9 mph - N/A   Overcast
10:15 PM 42.8 °F 37.5 °F 35.6 °F 76% 30.28 in 10.0 mi ESE 9.2 mph - N/A   Overcast
10:35 PM 42.8 °F 37.5 °F 35.6 °F 76% 30.27 in 10.0 mi ESE 9.2 mph - N/A   Overcast
10:55 PM 42.8 °F 37.5 °F 35.6 °F 76% 30.26 in 10.0 mi ESE 9.2 mph - N/A   Overcast
11:15 PM 42.8 °F 38.6 °F 35.6 °F 76% 30.25 in 10.0 mi ESE 6.9 mph - N/A   Overcast
11:35 PM 41.0 °F 35.8 °F 35.6 °F 81% 30.25 in 10.0 mi SE 8.1 mph - N/A   Scattered Clouds
11:55 PM 41.0 °F 35.8 °F 35.6 °F 81% 30.24 in 10.0 mi SE 8.1 mph - N/A   Scattered Clouds